GFSSW_250_spd_009.txt.gz
Wind_Speed
55 64 68 74 79 78 74 69 66 63 65 68 69 66 65 66 61 57 52 48 45 44 42 44 44 42 42 42 42 40 43 40 38 38 35 37 37 36 34 33 34 35 37 39 41
54 61 67 73 78 74 70 66 64 61 64 66 65 63 61 62 61 56 50 47 43 43 41 43 44 43 44 44 45 44 47 46 44 40 37 40 39 38 37 38 37 38 40 41 42
53 60 66 74 72 68 65 64 60 58 61 62 61 59 57 59 59 54 49 45 43 41 42 42 47 49 48 44 46 45 44 40 40 39 40 40 41 42 42 42 41 42 41 44 44
53 58 61 67 66 64 60 58 55 54 57 59 57 55 54 58 57 54 49 46 42 41 42 45 47 51 49 49 46 42 43 45 40 40 40 41 44 44 45 45 44 44 43 45 48
52 55 61 61 59 56 54 52 50 50 55 56 55 53 51 56 56 54 49 45 42 41 43 44 46 48 48 52 52 50 47 47 45 46 46 45 46 45 48 49 44 45 48 49 48
54 55 56 56 52 49 49 47 44 46 51 52 52 51 50 53 54 53 49 46 43 40 42 44 46 45 47 49 50 52 50 51 50 51 52 48 47 47 52 46 47 49 50 50 51
49 49 48 47 45 44 41 40 39 42 46 49 50 49 49 50 51 51 49 47 43 40 40 40 43 45 46 46 48 49 51 54 56 53 50 50 48 52 51 50 51 51 53 52 54
43 42 39 38 38 35 34 33 35 38 40 44 45 44 46 47 47 49 48 46 45 44 40 40 41 44 47 45 47 49 49 50 55 53 52 53 51 57 54 54 54 54 54 53 55
36 34 33 31 30 29 28 27 31 33 34 38 41 42 43 43 45 48 48 45 47 47 46 44 42 43 48 50 48 50 53 53 55 55 54 54 53 58 55 54 55 56 57 57 59
31 29 28 26 24 22 21 22 28 30 33 37 38 41 42 43 44 47 47 46 47 49 48 47 46 47 51 53 54 52 52 56 57 62 60 58 56 61 60 58 58 60 61 61 62
31 26 21 18 16 13 12 14 19 25 29 34 38 39 39 42 44 47 48 46 48 49 48 47 49 55 54 53 55 57 58 58 61 65 66 64 61 63 63 58 62 64 64 64 66
29 22 23 21 13 12 13 6 5 12 17 20 27 34 37 40 43 45 47 50 51 52 52 50 52 57 56 56 59 60 61 63 66 71 67 66 60 62 66 63 63 65 67 68 68
24 20 16 16 11 4 5 5 9 10 13 19 24 25 30 34 39 41 44 46 50 52 53 53 58 62 62 61 62 63 64 69 70 74 70 70 62 63 66 67 68 70 74 73 71
21 18 11 6 5 6 3 6 10 16 21 24 28 31 35 42 43 42 45 48 51 53 55 54 59 59 61 64 70 67 73 73 73 75 72 78 66 64 65 66 74 78 79 78 78
20 17 16 12 10 8 6 11 14 17 20 25 30 33 37 41 45 50 51 52 54 56 56 58 63 67 70 73 77 74 81 81 82 83 84 77 83 59 67 69 76 82 82 82 84
15 14 14 17 16 13 12 13 14 16 19 24 29 33 37 41 46 50 54 60 63 65 66 67 69 68 70 74 78 80 84 87 89 90 90 80 91 70 73 73 78 85 88 87 87
15 16 21 27 29 28 26 25 23 23 26 29 31 34 38 42 46 48 51 55 60 62 65 68 71 75 80 83 87 91 95 97 96 97 92 93 98 75 75 79 82 82 88 87 87
25 29 30 29 31 33 32 33 34 33 33 35 38 38 41 43 46 49 52 57 63 65 64 66 64 69 74 78 81 81 86 92 99 99 96 97 88 76 82 85 86 88 92 90 91
28 27 29 32 37 40 41 40 40 43 45 41 42 44 49 52 55 56 61 64 69 74 75 74 70 74 78 84 89 89 89 93 102 98 103 92 85 82 81 83 88 92 96 98 99
36 36 34 34 35 38 42 44 44 45 47 49 51 52 51 53 60 64 67 69 71 73 77 79 81 81 85 90 93 99 99 103 107 109 110 99 95 82 81 84 89 90 90 92 93
41 41 39 39 39 39 40 42 44 45 46 48 52 52 51 54 59 60 63 67 70 76 84 89 91 82 90 92 96 103 107 111 117 119 118 112 93 86 86 85 88 91 92 94 96
44 45 46 43 42 41 42 45 46 49 49 48 48 50 54 58 61 66 72 77 81 86 92 99 103 99 95 100 105 109 116 121 126 122 126 123 106 99 97 96 94 93 92 94 99
47 49 49 49 48 47 46 49 51 53 56 59 61 61 64 66 71 75 81 87 91 95 101 105 108 113 106 110 114 119 123 124 126 128 126 123 112 107 103 103 103 97 95 96 97
50 54 56 56 54 51 51 54 55 56 56 57 58 62 65 67 76 82 89 94 100 106 112 118 118 124 124 121 121 121 122 125 129 125 121 117 109 88 96 104 102 101 102 101 102
53 58 60 60 59 58 55 56 58 57 58 59 56 62 71 77 83 90 97 101 105 111 114 116 118 117 117 116 114 117 118 119 124 123 126 113 122 103 99 96 97 103 104 106 103
56 60 63 66 66 66 64 65 64 58 56 58 68 74 83 90 97 99 105 109 113 111 109 112 118 120 119 118 121 120 115 114 117 122 127 122 113 114 103 95 102 106 103 105 104
62 64 68 70 71 70 71 70 67 60 58 69 74 82 92 98 105 104 105 106 106 99 98 100 101 113 114 112 121 118 106 105 108 113 120 119 115 110 105 94 102 106 106 104 103

GFSSW_250_spd_015.txt.gz
Wind_Speed
54 58 65 75 75 76 75 70 66 64 62 65 66 66 65 64 64 62 60 58 55 54 52 52 49 50 48 47 42 42 43 42 38 37 37 37 35 33 33 34 34 36 39 41 41
49 53 60 70 71 73 71 67 63 61 59 58 61 62 62 61 61 60 57 56 55 55 53 53 50 49 47 46 43 43 44 42 41 39 39 40 39 39 36 36 36 39 42 43 44
44 48 56 63 66 67 66 60 58 56 54 52 54 58 60 59 59 58 56 54 54 55 54 53 50 48 46 44 44 44 44 43 43 42 38 42 43 44 43 41 41 45 48 49 46
40 44 49 53 58 61 58 54 52 52 48 47 48 52 56 56 57 56 55 53 54 54 54 52 49 45 44 42 43 45 43 44 44 43 41 43 46 46 48 44 47 47 47 48 43
40 43 45 46 50 53 53 52 50 48 44 43 43 44 47 49 54 54 52 52 52 53 52 51 49 46 44 43 42 43 44 47 47 46 43 43 47 50 54 49 43 39 44 46 47
44 43 42 44 48 50 50 49 46 44 41 40 40 39 40 44 48 48 48 50 50 50 47 49 47 44 43 43 42 45 45 46 49 47 46 45 48 46 50 40 42 45 47 48 50
46 46 47 48 48 49 46 43 42 39 36 34 33 34 35 37 40 41 44 47 48 47 47 50 47 43 44 43 42 44 45 45 49 50 50 49 48 53 53 48 48 53 54 54 57
53 49 46 44 42 39 36 34 31 29 28 28 28 30 29 32 35 38 41 44 44 45 47 49 48 46 47 45 45 44 45 47 50 50 46 44 48 54 50 48 49 52 54 56 56
46 42 38 34 30 27 24 22 20 21 22 22 23 24 26 28 31 34 36 38 40 40 44 46 48 48 49 47 45 45 43 44 49 51 49 48 43 60 53 49 49 50 52 53 55
42 37 32 27 22 17 13 11 11 11 13 16 19 23 24 26 28 30 33 36 38 40 43 48 49 52 54 51 50 50 49 49 51 55 52 49 45 54 57 52 51 54 57 58 59
38 34 29 25 21 17 14 11 8 6 7 9 14 19 22 24 27 31 34 36 38 40 42 46 53 56 58 58 58 58 58 58 63 65 57 55 47 47 56 53 55 59 60 61 61
35 32 28 25 21 17 15 11 8 3 1 5 9 14 19 24 28 30 32 36 38 42 43 45 52 56 60 60 62 64 65 66 66 70 66 64 56 58 59 61 60 62 64 66 67
31 27 23 21 18 15 12 10 7 4 1 7 11 16 19 24 28 32 36 39 42 44 47 50 54 56 58 62 67 69 70 73 74 75 74 72 61 62 63 64 69 70 71 73 76
25 23 21 18 13 9 5 5 2 3 6 9 12 16 20 24 29 34 40 44 46 48 49 52 56 58 61 66 67 68 75 75 76 78 77 79 70 65 68 70 73 76 78 79 81
21 19 17 14 12 12 10 10 10 13 15 15 16 18 23 25 29 34 38 41 43 46 50 55 56 59 63 66 70 71 74 76 79 81 81 80 85 64 72 76 78 81 82 84 88
26 27 26 22 18 15 14 15 15 14 16 18 22 25 28 30 32 35 37 39 38 45 50 54 57 60 63 67 70 73 76 79 82 84 83 86 90 65 75 77 80 86 90 92 98
23 23 23 23 22 20 18 17 16 17 18 19 22 26 30 33 37 39 42 44 46 49 53 54 57 60 63 66 70 76 79 81 81 83 82 85 86 70 74 79 83 86 89 94 98
20 22 23 23 23 22 23 22 22 21 20 19 20 22 24 28 31 35 38 40 46 51 57 58 62 67 71 75 79 84 90 94 95 93 92 92 88 80 83 90 88 89 90 91 93
19 21 22 23 23 23 25 25 25 27 25 24 23 27 29 32 35 39 42 44 47 52 54 55 57 65 71 75 80 85 91 97 105 103 108 99 99 94 95 97 98 98 98 98 97
20 22 22 24 25 27 28 29 28 29 28 29 30 31 33 36 38 42 46 48 50 55 59 62 60 67 74 78 83 89 94 100 107 112 114 107 104 100 98 100 99 99 98 98 101
20 22 23 26 27 29 29 30 33 35 37 35 34 36 38 41 46 50 52 51 54 59 62 67 68 69 77 83 90 93 98 106 112 118 128 126 111 109 113 110 109 109 108 102 102
21 24 26 28 31 35 36 39 40 42 45 42 42 43 44 45 48 52 55 57 59 61 63 68 74 76 81 90 95 106 110 117 124 126 130 138 133 113 115 115 114 110 113 110 113
25 28 31 32 35 40 43 44 46 49 52 52 52 50 51 54 55 57 59 59 62 66 72 74 82 84 91 99 102 107 112 120 124 130 133 135 124 114 110 118 120 115 118 119 119
31 34 38 41 43 45 48 49 50 54 56 58 59 58 59 62 64 67 68 72 72 75 81 86 90 94 89 89 84 92 103 110 117 122 126 123 125 114 106 104 110 111 112 112 120
38 41 43 45 48 50 53 55 56 58 62 64 64 65 65 68 72 76 78 79 79 85 91 98 94 92 92 95 99 102 106 113 118 120 121 116 121 116 104 99 97 104 104 106 106
42 46 49 51 54 55 58 60 64 64 66 70 71 74 72 74 79 81 80 81 85 91 99 99 96 95 96 104 102 102 107 116 118 117 115 108 105 106 101 100 92 94 99 103 105
48 52 55 56 58 61 62 65 68 69 73 77 76 76 77 81 85 84 85 92 95 98 98 100 103 102 100 107 103 104 112 113 111 106 105 98 91 91 92 89 86 88 93 97 99

GFSSW_250_spd_021.txt.gz
Wind_Speed
62 72 72 75 74 75 75 75 76 74 75 74 70 68 66 67 65 66 68 63 61 58 56 55 54 53 54 53 50 49 52 52 48 47 45 45 45 44 45 44 45 45 43 42 45
58 67 71 73 72 73 73 73 73 72 71 71 68 66 64 66 64 63 65 65 63 61 59 56 53 51 52 52 51 50 53 50 50 48 47 46 46 45 47 46 47 46 45 47 48
57 64 70 72 72 72 70 70 70 68 66 65 64 62 62 63 63 61 62 64 65 62 59 56 54 52 52 51 51 50 51 51 51 49 48 46 46 48 49 49 47 50 49 51 49
55 63 67 67 68 67 67 66 65 65 60 60 60 60 58 58 58 61 60 61 63 65 63 58 59 57 55 55 53 54 53 53 52 52 51 49 48 50 52 50 48 49 50 48 50
47 54 58 61 61 61 60 58 59 58 55 53 55 57 55 55 56 57 59 60 61 61 62 60 61 58 57 57 57 57 55 55 55 54 51 50 50 51 53 51 49 52 50 52 54
47 50 52 55 55 53 52 52 49 50 49 49 49 49 47 49 51 52 53 55 59 59 59 58 57 60 60 59 58 59 57 56 56 54 53 51 53 51 53 52 54 53 55 55 56
42 46 47 50 49 46 45 45 42 39 39 40 41 41 39 40 43 46 50 52 53 57 58 58 58 59 61 60 60 60 59 60 60 58 56 54 56 55 54 55 55 54 57 59 60
43 41 43 43 43 40 39 38 37 36 34 32 32 32 32 32 35 39 43 48 50 53 55 57 57 58 60 59 61 60 59 60 60 61 59 57 54 60 57 59 58 60 59 60 62
50 46 44 44 43 40 37 37 36 34 32 30 30 30 29 28 29 33 38 42 45 50 52 53 55 57 58 57 59 59 59 59 62 63 61 55 52 64 62 60 59 63 63 64 65
49 47 45 43 40 38 35 31 27 24 23 22 22 22 24 23 24 26 29 33 40 45 49 50 52 53 54 56 58 58 57 59 62 66 61 57 54 57 64 61 61 63 65 66 67
47 43 39 36 32 28 25 23 22 22 21 19 19 20 20 20 21 23 25 27 30 34 40 45 48 50 51 53 54 55 54 55 61 65 62 63 61 64 67 70 69 69 70 71 72
44 41 38 35 31 26 23 20 17 16 15 13 12 11 13 15 16 18 20 23 26 31 35 38 40 43 46 49 51 52 54 58 58 64 64 64 63 67 68 71 76 74 76 77 79
40 37 36 33 30 27 24 20 17 14 11 9 7 8 11 15 18 20 23 26 30 33 36 38 41 43 46 48 49 54 55 58 59 63 66 64 64 69 73 74 75 79 80 80 82
32 31 30 28 26 23 20 18 15 13 10 7 5 4 6 10 14 17 21 25 29 33 36 39 42 45 49 51 53 57 59 62 64 64 67 70 66 72 76 79 77 79 83 87 89
33 31 29 27 23 20 15 12 10 7 5 5 3 4 6 9 12 16 19 23 27 31 34 36 40 41 45 48 51 54 57 59 62 62 62 70 70 76 80 82 80 82 85 89 91
31 30 29 28 26 24 21 19 17 15 13 11 9 8 8 11 13 17 20 23 27 31 35 40 41 45 48 52 56 58 61 63 66 69 71 76 76 80 91 88 84 83 87 88 92
25 24 23 22 21 19 18 16 15 14 14 12 11 12 13 15 17 21 25 30 32 35 36 40 43 46 49 53 56 60 62 64 67 71 71 77 75 81 93 87 89 90 93 97 100
20 19 18 17 17 16 15 14 14 15 14 14 14 14 15 17 19 21 23 27 34 36 39 44 42 48 49 55 56 59 63 67 71 74 73 80 77 83 96 96 94 96 100 102 104
14 14 13 13 12 12 12 11 10 9 10 12 16 19 23 25 25 29 35 35 37 39 42 45 48 51 52 59 63 66 67 70 74 75 75 75 81 84 97 100 106 110 113 117 119
10 8 7 6 5 5 7 9 10 12 14 16 19 24 27 31 33 36 40 43 45 48 50 52 52 57 61 64 66 68 69 73 80 81 85 83 89 95 102 106 112 118 124 127 128
5 4 1 2 4 7 10 13 15 16 17 20 24 27 30 34 39 43 46 50 52 54 59 65 62 60 60 63 66 65 74 81 84 87 95 96 87 95 106 115 118 124 128 134 135
6 6 8 9 12 14 16 18 20 23 25 29 31 33 37 40 47 50 52 58 59 61 65 71 69 69 71 70 69 78 82 85 89 90 94 103 94 100 105 114 123 128 133 134 133
13 14 15 16 18 20 22 22 23 26 30 34 37 40 44 49 50 54 57 63 65 69 72 78 77 77 79 78 79 85 88 93 94 96 94 105 102 102 106 108 112 114 121 117 112
20 20 21 22 22 25 28 28 30 33 37 40 43 47 51 54 55 58 62 67 72 76 79 84 83 86 84 88 94 94 99 101 102 102 99 103 108 105 107 110 105 104 104 102 100
24 24 26 27 30 33 33 35 37 39 42 46 50 53 56 60 63 68 73 76 80 82 86 91 90 90 93 98 100 100 103 105 107 105 104 102 108 104 105 107 105 103 97 94 92
30 30 32 35 37 40 40 41 43 45 49 52 56 59 63 66 69 74 78 81 84 89 94 96 96 94 98 105 106 104 107 109 107 106 107 107 100 108 102 97 97 99 96 93 91
37 37 39 43 45 45 45 46 48 53 55 57 61 66 70 72 76 80 84 88 91 94 99 102 103 101 103 109 111 110 110 110 106 110 111 106 101 101 96 92 94 94 91 91 85

GFSSW_250_spd_024.txt.gz
Wind_Speed
67 73 76 75 74 73 72 72 72 75 74 74 74 70 65 63 61 60 61 62 60 57 55 56 56 56 56 56 56 55 54 51 47 49 46 47 50 50 50 49 48 46 44 45 45
66 71 72 72 73 72 71 71 71 71 74 73 73 70 65 61 60 60 60 62 61 60 57 56 57 57 57 56 57 56 57 55 50 47 50 50 52 52 49 48 48 47 46 47 47
62 68 72 70 71 69 70 69 68 69 69 70 70 69 64 61 58 58 59 60 61 61 60 58 56 55 56 56 56 56 56 55 54 51 49 51 52 54 53 51 49 49 48 48 53
59 65 69 68 69 66 65 66 65 65 64 64 66 65 64 60 57 57 59 59 60 60 61 61 59 58 57 56 55 55 55 56 54 50 50 51 54 54 55 56 52 50 51 52 55
54 63 64 66 65 64 63 63 61 60 59 58 61 61 61 60 57 56 56 58 59 58 60 62 62 61 59 58 58 58 57 55 55 56 55 55 57 58 60 57 56 55 53 53 56
52 58 60 62 60 59 59 58 56 55 53 53 52 56 57 56 53 54 53 55 57 58 59 60 63 63 63 62 60 60 61 61 60 59 59 59 61 60 63 62 61 59 58 57 57
47 48 52 54 53 53 52 50 48 47 45 47 46 49 51 50 47 47 50 51 54 57 57 58 60 61 61 62 62 60 61 62 64 64 62 62 63 65 65 64 66 64 63 62 63
44 46 49 48 45 42 42 40 39 39 38 39 38 39 39 40 40 43 45 48 51 53 55 57 59 61 61 61 62 61 62 64 65 65 63 62 61 69 67 65 66 68 64 65 65
40 40 39 37 34 33 31 31 32 29 28 29 30 30 30 31 32 35 38 41 45 49 51 54 56 57 59 61 63 61 62 63 66 65 63 62 61 66 68 66 66 66 68 66 67
44 40 37 33 31 31 30 32 32 30 29 29 29 28 28 27 27 28 29 32 37 42 48 53 53 54 56 58 60 60 60 64 66 67 63 64 62 65 70 68 68 70 71 72 73
45 40 37 34 32 31 30 30 28 28 26 23 23 23 23 23 24 24 25 27 30 33 39 42 44 49 51 53 55 56 58 59 63 64 62 63 60 65 69 72 72 72 73 76 78
43 40 37 33 32 30 28 26 24 23 22 21 20 20 20 21 22 23 25 26 28 29 30 32 34 38 43 46 48 53 55 56 58 61 61 62 62 66 69 71 74 75 77 80 81
40 39 36 34 31 28 25 23 21 20 19 18 18 17 17 18 19 19 18 19 21 23 26 28 32 36 39 43 45 51 51 55 56 60 64 63 67 72 72 71 73 77 81 84 85
39 37 36 33 29 27 24 21 18 16 14 13 11 9 9 10 11 13 15 19 22 25 27 30 33 36 40 43 45 49 51 54 58 59 61 71 68 77 77 76 75 79 82 86 88
31 31 30 28 27 26 23 21 17 16 14 11 9 6 6 5 6 9 11 15 17 19 22 22 28 34 37 41 44 48 50 52 56 58 59 68 68 76 75 73 74 78 80 82 85
31 30 29 27 26 24 22 20 19 16 16 13 10 8 6 5 6 8 12 16 19 21 25 28 31 35 40 45 49 51 53 55 57 58 60 65 66 75 79 77 77 80 85 87 89
28 28 27 25 24 24 23 22 21 18 16 14 12 11 11 9 8 9 12 14 16 18 21 22 27 32 41 47 46 49 53 57 62 64 67 71 75 80 81 83 83 83 85 87 92
20 20 20 19 19 18 17 16 15 14 13 11 9 8 8 8 9 13 16 21 25 27 30 34 34 41 43 54 54 52 54 59 61 65 67 70 73 86 84 88 91 95 98 101 104
17 17 16 14 14 14 13 11 9 7 6 4 3 4 6 10 14 17 23 26 29 30 33 37 43 48 49 56 61 59 63 65 62 64 66 69 77 85 84 89 93 98 105 110 114
15 13 11 11 11 8 6 4 2 0 2 3 6 10 14 17 21 25 27 32 34 37 41 42 48 56 58 62 67 71 76 73 73 76 79 75 78 87 94 98 102 106 112 115 120
13 11 9 8 7 6 4 4 7 9 10 11 14 17 20 23 26 31 34 36 38 42 47 53 56 63 65 69 72 78 83 81 83 87 92 90 81 87 95 99 101 104 110 115 119
15 14 13 12 12 12 12 13 13 15 17 18 22 25 27 30 35 37 40 44 47 51 55 61 64 69 73 79 81 86 90 90 93 95 96 102 83 92 95 98 101 103 105 106 110
19 19 18 19 19 20 20 19 21 22 23 26 30 31 33 37 40 43 44 49 53 59 63 68 72 75 81 85 87 91 96 97 101 101 99 103 99 98 99 100 98 101 106 106 105
25 24 25 27 27 26 26 26 27 28 32 33 36 37 41 44 46 48 51 57 62 68 72 73 78 80 87 92 95 97 103 106 110 108 104 102 103 103 104 102 100 102 105 104 102
31 30 30 29 30 29 30 31 33 34 36 38 40 43 48 50 53 58 62 66 70 74 76 79 83 85 91 96 99 103 106 110 112 109 107 102 109 108 104 103 102 104 105 102 98
38 36 36 35 34 35 38 40 42 43 43 45 48 51 55 59 62 66 69 73 78 79 82 85 88 91 95 100 104 108 110 112 112 111 112 112 108 111 107 104 102 104 107 102 95
42 42 41 40 40 41 44 47 48 50 51 53 55 58 62 67 70 72 76 81 84 87 89 92 94 97 100 105 108 113 115 115 113 117 120 116 112 107 106 101 99 102 100 94 92

GFSSW_250_spd_030.txt.gz
Wind_Speed
76 83 83 80 77 76 76 78 81 81 81 80 77 76 72 69 68 63 60 59 57 56 55 54 53 51 50 49 49 48 45 44 45 44 44 46 48 49 51 52 51 48 51 52 51
76 82 83 78 75 74 73 75 77 77 78 79 77 76 73 71 69 64 61 58 57 56 56 53 53 54 52 51 52 52 49 49 48 49 49 48 52 54 55 54 56 56 53 53 52
72 78 78 74 73 70 70 70 72 73 74 76 75 76 76 72 69 65 61 59 58 55 56 55 55 54 53 52 53 55 53 53 51 53 52 54 56 57 59 56 59 59 57 57 53
68 74 74 70 70 68 67 67 67 68 68 72 73 73 72 69 67 62 60 60 58 55 55 55 54 55 55 54 54 54 54 55 55 55 56 57 58 60 60 61 63 63 61 59 59
63 71 70 69 66 65 63 63 63 63 63 67 70 71 70 68 65 62 59 59 57 54 54 54 53 54 54 54 54 55 55 54 55 55 57 59 60 62 61 63 64 66 64 61 61
66 69 66 63 62 60 58 59 59 57 59 60 65 68 67 65 65 61 59 57 56 54 52 52 51 51 51 52 55 55 57 58 59 59 61 64 66 66 65 68 70 71 68 67 66
63 63 60 58 58 56 55 54 55 54 53 55 57 60 62 59 60 59 57 56 54 51 49 47 48 48 48 49 52 53 57 58 59 60 60 66 69 67 68 69 71 70 68 68 69
60 58 55 54 53 52 50 50 50 50 48 48 49 53 57 56 53 53 54 53 53 51 51 49 47 46 49 50 52 55 59 59 58 60 63 67 70 66 66 69 73 72 73 74 74
52 50 49 48 47 47 46 44 43 43 42 43 43 45 50 52 47 46 47 49 52 51 48 47 47 47 48 51 53 57 60 61 61 61 65 67 73 69 70 70 72 72 73 74 76
41 41 39 41 40 40 40 38 37 36 36 38 37 37 40 43 43 41 42 45 47 49 49 49 49 50 51 54 55 56 59 61 62 61 64 65 66 67 69 69 70 73 74 75 75
37 35 36 36 34 33 33 31 28 29 31 31 29 30 29 31 33 35 38 42 44 45 45 47 50 50 51 52 54 56 59 61 62 60 59 60 56 61 65 66 64 63 66 69 72
31 30 31 33 32 31 28 27 29 29 29 28 28 27 28 28 28 30 32 35 38 41 43 42 42 44 46 48 50 50 49 49 46 45 45 49 47 49 51 52 54 57 60 63 67
33 32 29 30 28 29 30 30 29 29 31 31 30 30 29 29 30 30 30 31 30 31 33 34 36 35 35 34 32 28 29 27 26 29 30 33 31 31 34 41 46 50 55 59 63
34 34 34 32 31 30 28 27 26 26 27 26 26 26 26 26 27 26 25 26 28 28 27 26 24 22 19 17 17 14 17 17 20 26 33 33 34 39 42 46 52 54 56 58 61
31 30 29 28 28 27 26 25 25 25 25 24 24 24 24 24 24 25 24 21 18 17 16 15 15 12 9 10 15 21 22 22 28 32 35 37 40 44 50 53 57 61 62 64 64
31 30 29 28 28 26 26 26 25 24 25 25 24 24 24 22 19 18 16 15 15 14 13 11 12 14 14 13 17 23 28 30 35 40 45 50 50 53 58 62 66 67 70 73 76
28 29 30 29 29 29 29 29 29 28 26 25 22 21 20 19 19 18 19 18 16 14 14 14 15 18 19 22 26 29 33 38 42 46 52 57 58 63 68 71 74 77 79 82 85
22 23 24 26 26 25 25 25 24 22 22 22 21 21 21 21 22 22 19 17 14 14 15 18 22 24 26 30 34 37 43 47 48 53 56 63 66 69 78 81 85 88 90 94 96
21 21 22 23 23 22 23 23 24 23 23 23 23 23 22 20 18 17 18 18 17 19 21 23 27 29 31 36 41 46 50 53 55 58 59 65 73 78 83 87 92 96 100 105 107
18 20 21 21 22 23 23 24 24 24 24 23 21 18 17 16 17 17 18 20 23 25 27 30 34 36 40 45 49 53 56 58 62 66 67 73 77 84 86 92 97 103 109 114 113
17 19 19 21 21 22 22 22 21 21 19 19 19 19 19 18 19 21 24 26 28 31 33 36 41 43 45 50 55 58 62 66 71 76 80 80 82 89 96 99 105 109 116 121 119
21 21 21 21 22 23 23 22 22 22 21 22 23 23 24 25 26 27 27 30 32 35 38 42 45 50 53 55 60 66 70 74 77 80 86 88 85 94 99 103 110 117 121 120 116
27 26 26 26 27 27 26 27 26 25 25 26 27 28 28 30 31 32 34 38 41 44 46 49 53 56 58 61 64 71 75 79 82 87 92 96 96 104 105 110 115 122 126 121 117
34 35 34 33 34 34 33 32 32 31 32 33 34 36 38 38 39 41 43 46 49 51 53 55 59 62 66 68 71 77 81 85 89 93 94 103 100 108 112 116 120 127 125 121 114
39 40 41 41 40 41 40 39 39 39 38 39 41 43 44 44 46 47 49 51 56 58 61 62 64 67 73 74 77 80 85 89 95 100 102 102 110 114 117 122 127 130 124 117 112
44 46 45 46 47 48 48 48 48 47 47 45 44 44 46 49 51 54 57 59 63 65 66 68 69 71 76 80 82 85 92 94 100 104 108 109 111 119 123 129 133 129 125 117 113
44 46 52 52 52 52 54 54 53 53 53 53 53 53 54 57 59 61 64 66 69 71 73 73 75 76 78 81 85 92 95 98 102 107 112 115 119 122 126 133 133 130 123 118 113

GFSSW_250_spd_033.txt.gz
Wind_Speed
75 81 84 85 84 82 82 82 83 84 79 78 75 72 69 67 67 65 62 60 56 54 54 52 52 51 49 48 47 45 43 43 42 41 40 42 43 45 45 43 45 48 50 52 53
74 80 83 83 82 80 80 79 79 82 80 76 76 73 72 68 65 64 64 61 59 55 53 52 52 52 52 51 50 49 47 48 47 47 46 48 50 49 48 46 49 49 50 53 55
73 79 81 81 79 77 76 75 76 79 79 76 75 74 72 69 67 63 63 61 59 56 55 54 53 52 53 53 53 52 51 51 50 51 53 55 53 54 53 54 53 53 56 57 59
70 75 78 77 74 73 72 71 72 74 77 76 75 74 71 70 66 64 63 63 60 57 55 54 53 53 53 53 53 53 53 54 52 53 56 58 57 58 57 59 56 56 58 59 58
68 71 73 72 70 69 69 67 67 68 72 73 74 72 71 70 69 65 62 61 58 56 55 54 55 53 53 54 55 54 54 54 54 55 57 58 59 59 59 56 58 59 61 63 66
65 69 70 69 66 66 65 63 63 64 66 70 71 71 70 69 69 68 63 59 58 55 54 54 55 53 53 54 54 55 56 55 55 56 60 63 62 62 61 61 64 65 66 66 66
65 69 67 62 61 62 61 59 58 59 61 63 64 65 67 68 67 68 63 59 57 54 54 53 54 54 53 54 53 55 55 55 55 57 60 63 62 60 63 63 65 66 67 67 67
63 61 59 58 58 57 56 54 54 53 54 55 55 56 60 62 64 64 64 62 59 58 56 54 53 51 50 50 50 51 52 51 53 59 61 63 63 63 63 63 65 67 68 70 71
58 56 53 52 53 53 51 49 48 48 48 49 50 50 51 56 60 59 61 59 59 58 56 54 53 52 51 50 50 52 52 52 54 59 59 60 64 64 63 64 66 68 69 69 70
51 49 47 47 46 46 45 43 42 43 43 42 41 43 43 45 51 55 56 55 54 55 55 52 53 53 53 51 52 54 54 54 55 58 59 58 61 63 65 66 66 66 65 63 61
41 41 41 42 40 39 37 35 35 35 36 36 35 36 38 39 41 44 48 47 45 46 46 48 50 53 54 54 56 56 57 58 57 57 59 59 58 54 49 45 45 47 47 47 50
34 34 33 33 32 31 31 30 29 29 31 33 33 33 32 31 31 34 40 43 39 42 45 47 48 50 52 54 54 53 55 55 55 54 53 46 36 32 34 35 37 42 47 51 53
30 30 31 31 30 30 31 30 28 28 31 31 31 31 29 28 29 31 35 38 39 41 43 44 45 47 46 46 46 45 46 44 42 38 27 22 22 29 35 39 42 45 49 52 56
27 29 29 27 27 27 28 27 27 30 30 29 29 28 28 30 30 32 32 34 36 38 40 38 37 37 37 38 38 37 35 32 26 26 29 28 24 35 42 45 48 52 55 57 60
27 27 26 25 27 27 26 26 27 27 27 26 27 27 28 29 29 29 31 33 33 32 33 33 34 34 33 32 33 32 27 25 27 28 31 35 35 41 48 52 55 57 59 61 65
25 25 25 25 25 25 26 26 26 26 27 27 27 27 28 28 28 29 29 29 29 31 31 32 31 29 29 29 29 29 28 28 30 33 37 42 44 49 54 56 59 62 64 67 72
23 23 23 23 23 23 24 24 24 25 25 26 27 27 27 28 27 27 27 28 29 29 28 29 29 27 28 29 29 30 32 34 37 41 46 51 50 55 58 61 65 67 70 74 78
18 20 21 22 23 24 25 26 27 28 28 28 28 28 28 27 27 27 28 27 28 28 29 27 26 26 28 30 33 36 39 42 43 47 50 56 57 61 68 69 72 74 77 80 84
17 18 19 20 22 23 24 25 25 26 26 27 26 25 26 26 26 27 28 29 28 26 26 28 28 29 32 35 36 39 44 48 52 54 55 58 64 68 74 74 78 81 85 88 92
14 18 19 19 20 21 22 22 23 23 24 24 24 25 26 28 28 29 28 28 26 27 30 32 34 36 38 41 44 47 49 53 58 60 59 62 69 78 76 79 82 87 90 94 99
13 15 17 20 21 21 22 24 24 25 25 25 27 27 28 27 27 27 28 29 31 32 34 35 39 40 43 45 49 53 57 61 64 66 68 69 73 80 82 84 89 92 96 101 107
17 18 19 20 21 23 23 24 25 25 25 27 28 28 28 29 29 29 29 31 33 36 37 38 41 43 46 51 55 60 63 66 69 72 76 79 78 85 89 92 96 101 105 111 115
23 23 24 24 23 25 26 27 28 28 29 29 30 30 30 32 33 34 37 40 41 42 43 45 48 51 52 57 61 66 70 73 75 77 81 85 88 93 94 98 104 108 113 117 120
31 30 30 31 30 29 31 33 33 33 33 35 35 36 37 38 40 42 44 47 49 52 52 52 55 58 61 64 67 73 76 79 80 83 85 90 89 100 103 106 109 114 119 121 125
33 37 38 38 39 39 38 39 40 40 40 42 42 42 44 46 47 50 52 54 57 58 58 59 61 66 69 72 74 78 83 86 87 90 91 93 96 103 106 109 114 120 123 124 129
36 40 43 45 46 46 47 48 50 50 50 50 52 53 53 54 54 54 54 56 58 60 63 66 68 70 76 78 79 82 89 88 90 95 99 100 101 110 112 117 121 126 128 130 137
41 42 46 47 49 52 53 53 54 57 59 60 60 61 62 62 62 63 64 66 67 70 73 75 77 78 79 82 84 85 89 93 94 98 104 105 111 113 117 121 127 130 133 138 144

GFSSW_250_spd_036.txt.gz
Wind_Speed
72 84 86 88 88 87 87 88 86 82 78 74 71 69 67 66 66 65 63 61 58 54 52 52 53 51 49 48 48 44 43 43 42 41 39 39 39 39 37 37 40 43 48 51 53
71 80 84 87 86 85 84 85 85 83 80 75 72 70 69 66 63 62 63 62 60 57 56 53 52 52 49 50 50 48 46 45 45 45 45 44 43 43 42 42 47 49 53 54 56
68 79 83 85 85 84 82 81 81 81 81 77 73 71 70 67 62 61 62 63 61 58 57 55 53 51 51 50 49 49 49 48 49 51 51 50 49 46 47 50 52 54 54 57 59
68 78 81 83 83 82 79 79 77 78 78 77 74 72 70 68 63 60 59 61 62 60 58 57 54 51 49 50 50 50 51 52 52 54 54 55 53 48 52 55 56 57 59 59 60
69 76 78 81 80 79 76 75 74 74 75 76 76 72 69 69 66 62 59 58 58 61 59 58 55 54 52 52 51 51 51 52 54 55 57 57 53 52 55 57 59 60 62 64 65
64 70 72 75 75 74 72 71 71 70 71 74 74 72 68 67 66 64 61 59 57 58 58 57 54 54 54 53 52 53 53 53 54 56 58 57 53 55 59 59 62 63 63 64 65
60 64 67 70 69 68 68 66 65 65 67 69 70 71 68 67 67 64 64 61 57 57 56 56 57 56 57 55 54 54 53 54 56 58 59 58 57 57 58 60 62 63 64 65 66
59 62 66 67 65 62 62 61 60 60 62 62 64 67 67 64 64 65 63 63 60 58 55 54 55 56 55 55 54 55 56 54 54 56 58 57 56 56 56 59 62 64 65 66 67
54 58 61 59 56 55 56 55 55 54 54 55 57 60 63 63 62 62 65 63 62 61 57 54 52 53 52 53 55 53 53 52 55 56 54 56 58 57 58 60 63 64 65 66 65
54 55 53 51 50 49 50 50 50 48 47 49 51 53 58 57 58 60 60 61 61 62 62 59 56 55 55 57 56 56 56 57 57 56 55 58 60 62 64 64 64 63 63 57 48
48 46 45 44 43 44 45 45 44 44 43 42 44 46 48 49 49 52 54 58 59 60 59 62 60 57 58 58 58 58 58 56 58 58 58 59 61 62 60 57 58 57 46 41 40
38 38 37 39 39 38 38 39 38 37 37 37 37 38 40 40 41 41 44 48 51 54 54 57 58 55 56 56 56 57 58 58 58 58 58 58 58 53 49 45 40 37 39 42 46
30 30 31 31 30 31 31 31 30 29 30 32 33 33 33 35 36 36 37 39 42 45 47 47 48 48 48 50 52 54 55 55 55 55 57 53 44 41 40 38 39 42 44 49 52
25 26 27 27 29 29 29 28 27 27 29 31 32 33 34 33 32 32 33 35 38 40 43 45 45 45 48 50 50 50 49 51 53 51 47 41 32 40 40 43 45 48 52 56 60
24 25 26 26 26 27 26 26 26 25 26 27 29 29 28 29 30 33 35 37 37 38 39 42 44 43 43 43 45 46 45 47 46 43 40 36 33 41 44 48 51 54 59 64 67
19 21 21 22 23 24 24 24 24 25 26 27 27 27 28 28 29 31 33 33 33 34 35 36 35 36 39 41 43 44 45 41 40 41 38 40 40 46 50 55 58 62 66 68 72
18 19 19 21 23 23 23 24 25 25 25 26 26 27 28 28 28 29 29 29 29 30 31 33 35 37 39 42 43 41 41 39 37 39 42 45 47 54 60 63 64 66 70 74 77
14 15 16 17 18 20 21 22 23 24 25 26 27 28 27 28 29 30 31 31 31 32 34 36 38 39 38 37 37 37 38 39 39 41 44 50 54 59 65 65 67 71 75 80 84
9 11 12 14 16 18 20 22 23 23 24 26 27 28 29 29 30 30 31 32 33 34 36 36 37 35 34 34 36 38 40 42 44 47 49 52 59 63 70 71 74 78 82 86 89
4 6 9 12 14 16 18 20 22 22 24 25 26 26 28 29 30 30 31 34 35 36 36 35 35 34 36 39 41 43 46 47 49 52 54 57 62 70 74 76 79 82 86 91 94
7 12 14 15 16 18 19 20 22 23 24 25 26 28 29 30 31 33 35 36 36 36 37 37 38 39 42 45 46 47 48 51 53 58 60 60 66 76 78 81 83 88 92 96 101
13 14 15 17 19 22 24 25 27 28 29 30 31 32 33 33 34 35 37 37 37 38 39 40 44 46 47 49 49 52 55 58 61 66 71 74 75 83 85 86 89 94 99 104 106
19 19 20 21 22 23 24 26 28 29 30 31 32 33 34 35 35 36 37 38 41 42 43 45 47 49 52 54 57 60 64 68 71 75 78 82 87 91 91 90 94 100 106 110 112
23 24 26 26 27 28 28 29 30 31 32 33 34 35 36 38 38 41 42 44 45 47 48 50 54 57 59 62 65 69 72 75 78 82 84 90 88 99 98 99 102 109 114 116 119
31 30 29 30 34 34 35 36 36 36 37 39 40 41 42 44 45 46 47 49 51 53 55 57 61 64 64 65 67 72 78 80 85 90 91 92 93 99 101 103 110 115 117 119 123
39 37 37 35 35 38 42 44 44 45 45 46 47 48 49 50 52 54 54 56 59 61 64 66 67 69 71 74 75 77 87 89 91 95 95 97 98 103 104 109 115 119 121 124 127
44 45 44 41 42 42 42 48 52 53 54 54 55 57 59 60 61 62 65 67 68 71 73 75 78 79 78 82 82 83 90 94 95 96 102 103 106 106 109 115 119 123 126 128 129

GFSSW_250_spd_039.txt.gz
Wind_Speed
69 77 86 89 90 91 93 90 88 83 79 74 71 71 69 66 63 60 65 61 60 57 53 53 53 51 49 48 47 46 45 45 43 43 42 41 38 36 37 39 43 46 48 49 52
65 77 82 90 90 89 92 91 87 83 80 75 71 72 70 64 62 60 61 63 61 60 58 54 52 51 51 49 47 46 46 46 45 44 43 41 39 40 42 45 47 51 54 54 56
63 75 82 90 90 88 89 90 87 84 81 77 72 71 70 66 62 59 59 60 63 61 60 58 55 53 50 49 50 48 48 48 49 49 47 43 44 45 49 51 53 54 56 58 59
63 72 83 89 88 86 87 87 87 84 81 77 74 71 69 66 62 59 58 57 61 62 60 60 58 54 52 50 48 48 50 48 48 50 47 47 49 52 54 55 57 58 59 60 60
60 70 81 85 85 83 84 83 84 83 81 77 75 71 68 66 63 61 57 57 58 59 60 59 57 55 54 52 51 48 49 50 50 49 49 50 51 54 56 57 58 60 62 62 62
60 69 77 80 81 79 80 79 80 80 78 77 75 72 68 65 64 62 59 57 56 55 56 60 58 57 55 54 54 52 51 50 51 51 48 49 51 53 55 57 60 61 62 63 64
59 67 73 77 78 75 75 75 75 76 75 74 73 72 68 66 64 62 61 58 55 54 54 55 56 57 57 56 56 54 52 52 52 53 50 51 55 57 59 59 59 59 58 60 62
56 65 69 73 73 71 70 69 69 69 70 70 69 70 69 65 62 61 62 60 59 55 53 53 54 53 54 54 55 56 55 53 55 58 59 56 57 57 57 57 56 58 59 62 63
55 59 62 67 68 66 65 63 62 63 63 64 65 65 67 66 62 60 61 61 60 58 56 54 54 53 53 54 55 54 54 55 57 57 57 57 58 57 58 59 58 59 62 63 66
51 55 59 63 62 60 57 57 55 55 57 57 59 60 60 64 63 59 58 59 61 59 59 59 58 55 54 53 52 51 52 54 52 56 58 60 60 61 61 61 60 62 64 65 63
48 51 55 55 53 52 51 51 49 49 50 50 53 53 55 58 59 59 57 57 59 61 61 60 60 61 59 58 56 54 54 53 55 58 60 62 63 64 64 63 62 62 63 58 51
45 47 47 47 45 45 44 45 44 44 44 45 45 48 48 49 51 54 55 57 58 58 58 61 62 59 59 59 60 61 61 60 58 59 61 61 62 63 63 62 62 60 55 52 48
37 38 38 37 37 36 37 38 38 37 37 37 36 39 42 43 45 47 50 51 51 51 54 56 58 58 59 60 59 60 60 59 57 55 56 58 60 60 60 60 55 50 47 46 49
26 28 29 28 27 27 28 28 29 29 30 32 32 34 36 37 40 41 43 43 45 44 46 49 50 51 53 56 56 55 54 54 54 55 55 56 53 57 55 53 50 47 47 51 52
21 22 24 24 26 27 27 26 27 28 29 30 33 35 36 38 38 39 38 38 39 41 40 42 43 45 48 49 51 51 51 53 54 52 53 52 50 53 53 51 50 50 53 57 60
17 18 19 21 23 24 25 25 25 25 26 28 31 32 33 34 34 34 33 33 35 37 38 41 43 45 47 48 49 48 49 48 49 50 50 51 49 50 50 51 51 54 58 63 68
16 16 16 17 19 20 21 21 22 22 22 23 26 29 30 30 30 31 31 31 33 34 37 38 39 41 41 41 43 44 45 47 48 49 47 47 43 48 49 52 55 59 63 67 71
12 12 13 15 18 21 23 23 25 25 27 28 29 30 30 30 29 29 30 31 32 33 34 35 35 37 39 41 43 45 47 47 44 44 43 45 46 50 54 56 58 62 66 70 73
7 9 11 13 16 18 21 23 24 25 23 24 26 27 28 28 28 30 32 34 36 37 37 38 39 40 41 42 43 45 45 44 42 42 44 47 52 55 59 60 63 65 71 77 80
2 3 6 9 13 15 18 19 19 20 21 23 25 27 28 30 32 34 36 36 36 37 38 39 40 41 41 43 44 44 44 44 47 47 49 51 54 61 63 67 70 74 80 84 88
4 5 6 6 8 12 14 17 19 20 22 24 26 28 30 31 33 34 35 35 37 39 40 41 42 43 43 44 45 46 48 50 53 56 54 53 57 69 73 77 79 83 87 91 96
10 10 10 11 13 15 16 16 17 20 22 25 27 28 30 32 33 34 35 37 39 41 42 43 43 44 45 47 49 52 55 57 59 59 62 64 67 76 81 82 86 90 94 98 100
15 17 18 18 18 19 20 22 24 26 28 30 31 32 34 35 37 38 40 41 43 44 45 44 45 46 48 50 53 57 60 62 64 67 71 72 76 81 84 88 93 97 101 103 105
22 21 21 23 25 25 25 26 27 28 30 31 34 35 37 39 40 42 42 44 45 46 46 47 49 51 53 55 58 62 64 67 71 74 73 79 80 94 93 95 100 102 105 107 109
30 29 29 28 29 28 30 32 33 34 34 35 36 38 39 41 43 44 45 46 47 49 51 52 54 57 60 61 61 65 71 75 78 83 83 86 90 98 99 101 105 108 110 110 113
36 36 36 37 36 36 35 35 36 39 42 43 44 44 45 46 48 49 50 52 53 55 57 60 61 63 64 67 68 71 82 83 87 91 92 95 96 101 102 105 109 109 109 112 115
37 40 42 43 43 44 43 42 43 43 43 44 47 51 54 54 55 55 58 60 61 63 65 67 69 71 72 78 78 78 89 92 94 96 97 99 101 102 104 105 108 109 112 115 119